Location: Norton
(51.3000°N, 0.8167°E)
Time: 01:50:42
(UTC+00:00)

MOS 1 - Pass Details

Date: 03 March 2021
Orbit: 878 x 892 km, 99.1° (Epoch: 13 April)

Event Time Altitude Azimuth Distance (km) Brightness Sun altitude
Exits shadow 19:26:01 15° 147° (SSE) 2,218 6.0 -17.1°
Maximum altitude 19:30:45 65° 69° (ENE) 978 4.3 -17.8°
Drops below altitude 10° 19:36:23 10° 349° (N) 2,559 7.0 -18.7°
Sets 19:38:48 0° 346° (NNW) 3,500 7.8 -19.1°
